Regional Weather Roundup
Issued by NWS

Home | Current Version | Previous Version | Text Only | Print | Product List | Glossary Off
Versions: 1 2 3 4 5 6 7 8 9 10 11 12 13 14 15 16 17 18 19 20 21 22 23 24 25 26 27 28 29 30 31 32 33 34 35 36 37 38 39 40 41 42 43 44 45 46 47 48 49 50

000
ASUS45 KABQ 262001
RWRNM
NEW MEXICO REGIONAL WEATHER ROUNDUP
NATIONAL WEATHER SERVICE ALBUQUERQUE NM
200 PM MDT MON SEP 26 2016

NOTE: "FAIR" MEANS FEW OR NO CLOUDS BELOW 12,000 FEET AGL WITH NO
       SIGNIFICANT WEATHER OR OBSTRUCTIONS TO VISION.

      THIS PRODUCT IS RELEASED AS TWO VERSIONS.  ONE VERSION NEAR
      THE TOP OF THE HOUR CONTAINING PRELIMINARY DATA FROM ALBUQUERQUE
      AND OTHER STATIONS.  A FINAL VERSION WITH ADDITIONAL DATA IS
      ISSUED ABOUT 10 MINUTES AFTER THE HOUR.

NMZ501-503-504-510>518-262100-
NORTHWEST PLATEAU/NORTHCENTRAL MOUNTAINS

CITY           SKY/WX    TMP DP  RH WIND       PRES   REMARKS
FARMINGTON     FAIR      71  32  23 MISG      30.37F
LOS ALAMOS     FAIR      64  31  28 S6        30.46F
SANTA FE       FAIR      66  33  29 CALM      30.41F
TAOS           FAIR      68  32  26 CALM      30.43F
ANGEL FIRE     FAIR      64  33  31 S13       30.50F

$$
NMZ402-403-502-505>509-262100-
WESTCENTRAL MOUNTAINS/SOUTHWEST MOUNTAINS

CITY           SKY/WX    TMP DP  RH WIND       PRES   REMARKS
GALLUP         FAIR      72  30  21 E16G22    30.39F
SILVER CITY    CLOUDY    65  34  31 SE18      30.33F

$$
NMZ407-409-411-412-262100-
SOUTHERN DESERTS

CITY           SKY/WX    TMP DP  RH WIND       PRES   REMARKS
DEMING         CLOUDY    67  36  31 SE18      30.30F
LAS CRUCES     CLOUDY    67  34  28 SE9       30.31F
HOLLOMAN AFB   FAIR      75  34  22 W14       30.25F
ALAMOGORDO     FAIR      73  32  21 W5        30.28F
T OR C         CLOUDY    72  32  23 E8G17     30.31F

$$
NMZ519>523-262100-
CENTRAL VALLEYS/CENTRAL HIGHLANDS

CITY           SKY/WX    TMP DP  RH WIND       PRES   REMARKS
ALBUQUERQUE    PTSUNNY   68  31  25 SE18      30.38F
DOUBLE EAGLE   PTSUNNY   68  34  28 SE6       30.41F
MORIARTY ARPT  FAIR      62  29  28 SE10      30.44F
CLINES CORNERS FAIR      60  32  34 E14       30.47F
BELEN          FAIR      67  30  25 CALM      30.38F
SOCORRO        FAIR      73  29  20 E13G18    30.34F

$$
NMZ524>526-539-540-262100-
SOUTHCENTRAL MOUNTAINS

CITY           SKY/WX    TMP DP  RH WIND       PRES   REMARKS
RUIDOSO        FAIR      59  32  36 SE18G28   30.47F

$$
NMZ527>531-262100-
NORTHEAST HIGHLANDS/NORTHEAST PLAINS

CITY           SKY/WX    TMP DP  RH WIND       PRES   REMARKS
LAS VEGAS      FAIR      62  31  31 S6        30.46F
RATON          FAIR      68  34  28 VRB5      30.41F
CLAYTON        FAIR      73  36  25 CALM      30.36F

$$
NMZ532>537-262100-
EASTCENTRAL PLAINS

CITY           SKY/WX    TMP DP  RH WIND       PRES   REMARKS
TUCUMCARI      FAIR      75  35  23 E10       30.33F
CANNON AFB     NOT AVBL
CLOVIS AIRPORT FAIR      72  41  33 E13       30.36F

$$
NMZ028-029-538-262100-
SOUTHEAST PLAINS

CITY           SKY/WX    TMP DP  RH WIND       PRES   REMARKS
ROSWELL        FAIR      73  38  27 E12       30.34F
ARTESIA        FAIR      66  45  45 CALM      30.34F
CARLSBAD       LGT RAIN  62  50  64 SE6       30.34F
HOBBS          PTSUNNY   64  41  42 NE9       30.35F


$$




USA.gov is the U.S. government's official web portal to all federal, state and local government web resources and services.